METEOSAT 5 (MOP 2) 1 21140U 91015B 10247.49752857 .00000002 00000-0 10000-3 0 3445 2 21140 011.8567 044.3626 0004789 126.0377 234.1087 00.98450239 73451 NOAA 12 1 21263U 91032A 10248.43025692 .00000021 00000-0 27960-4 0 6959 2 21263 098.7654 261.5800 0011685 296.9204 063.0785 14.25651712 3837 METEOSAT 6 1 22912U 93073B 10246.83777372 -.00000028 00000-0 00000+0 0 7645 2 22912 009.3718 054.5774 0005051 218.4284 078.9387 01.00269328 59915 NOAA 14 1 23455U 94089A 10248.39667596 .00000011 00000-0 29425-4 0 1849 2 23455 098.8743 328.5655 0009736 013.4228 346.7215 14.13793398808832 HIMAWARI 5 (GMS 5) 1 23522U 95011B 10247.11281981 +.00000054 +00000-0 +10000-3 0 04689 2 23522 008.5583 057.6381 0008070 350.2927 009.8443 00.99405260056350 GOES 10 1 24786U 97019A 10247.72630280 -.00000149 00000-0 10000-3 0 5844 2 24786 004.6086 067.7956 0007854 050.4991 309.8567 00.99074332 48934 ORBVIEW 2 (SEASTAR) 1 24883U 97037A 10248.42560995 -.00000062 00000-0 -74551-5 0 2277 2 24883 098.3424 018.5652 0001430 230.9183 129.1873 14.32198501697241 METEOSAT 7 1 24932U 97049B 10247.99631413 .00000054 00000-0 00000+0 0 1999 2 24932 006.2561 064.1393 0000495 073.4347 262.5779 01.00271370 47644 NOAA 15 1 25338U 98030A 10248.76991538 .00000173 00000-0 92586-4 0 5096 2 25338 098.6265 234.2793 0010280 195.3770 164.7084 14.24853247640226 GOES 11 1 26352U 00022A 10248.33974925 .00000075 00000-0 10000-3 0 9850 2 26352 000.2956 261.1104 0004193 285.2359 144.9335 01.00267458 37864 FENGYUN 2B 1 26382U 00032A 10246.68313089 .00000107 00000-0 10000-3 0 3050 2 26382 005.4062 066.9675 0002545 192.1200 168.1004 01.00094197 37304 NOAA 16 1 26536U 00055A 10248.76242581 .00000113 00000-0 86186-4 0 9877 2 26536 099.1699 268.1253 0011398 110.4658 249.7737 14.12574403513202 GOES 12 1 26871U 01031A 10247.34565226 -.00000295 00000-0 10000-3 0 7355 2 26871 000.7408 081.4593 0000834 102.4215 223.9983 01.00283942 33466 FENGYUN 1D 1 27431U 02024B 10249.00955439 -.00000176 00000-0 -76510-4 0 3135 2 27431 098.6742 226.2437 0014431 229.2396 130.7520 14.09296822427607 NOAA 17 1 27453U 02032A 10248.36909587 .00000223 00000-0 11472-3 0 9805 2 27453 098.4239 295.5541 0010751 262.2516 097.7458 14.24187651426110 MSG 1 1 27509U 02040B 10246.07231491 +.00000056 +00000-0 +10000-3 0 05596 2 27509 000.8370 049.5920 0000611 008.1632 319.6080 01.00275709029447 KALPANA 1 (METSAT 1) 1 27525U 02043A 10245.64366057 -.00000083 00000-0 10000-3 0 1560 2 27525 000.0689 265.0859 0007416 203.8592 178.4451 01.00272334 29236 INSAT 3A 1 27714U 03013A 10246.57425763 -.00000267 00000-0 10000-3 0 2690 2 27714 000.0075 203.4014 0004599 277.6256 161.8013 01.00271121 27140 FENGYUN 2C 1 28451U 04042A 10248.84892473 -.00000372 00000-0 10000-3 0 9492 2 28451 002.4786 072.9301 0000765 199.6163 141.5234 01.00265238 21510 MTSAT-1R 1 28622U 05006A 10245.63057928 -.00000286 00000-0 10000-3 0 4113 2 28622 000.0480 319.0912 0002169 347.2339 042.4160 01.00271006 20183 NOAA 18 1 28654U 05018A 10248.33761654 .00000411 00000-0 25146-3 0 4687 2 28654 098.9542 194.3911 0014204 184.1593 175.9465 14.11386807272742 MSG 2 1 28912U 05049B 10248.21586713 -.00000017 00000-0 10000-3 0 7337 2 28912 000.4235 298.0134 0001284 215.0817 268.8870 01.00273043 17315 MTSAT-2 1 28937U 06004A 10244.39260433 -.00000244 +00000-0 +10000-3 0 08152 2 28937 000.0493 085.4586 0002956 052.3206 129.0575 01.00273802016653 FORMOSAT 3A 1 29047U 06011A 10246.78151844 -.00000039 +00000-0 +75953-6 0 03162 2 29047 071.9784 198.3507 0050327 101.4076 259.2719 14.27141687231012 FORMOSAT 3B 1 29048U 06011B 10247.85531709 +.00000390 +00000-0 +17471-3 0 03802 2 29048 071.9688 111.0928 0044328 049.5209 310.9755 14.27172872233645 FORMOSAT 3C 1 29049U 06011C 10249.20110507 .00000361 00000-0 16364-3 0 3272 2 29049 072.0202 259.9217 0034340 107.9783 252.5089 14.27184019229611 FORMOSAT 3D 1 29050U 06011D 10247.94981464 +.00001104 +00000-0 +26646-3 0 06151 2 29050 072.0085 040.0344 0053513 320.4052 039.3126 14.54253274235896 FORMOSAT 3E 1 29051U 06011E 10248.67296352 .00000373 00000-0 16522-3 0 3828 2 29051 072.0073 169.2357 0070009 336.1436 023.6450 14.27178433232123 FORMOSAT 3F 1 29052U 06011F 10247.94809309 +.00000360 +00000-0 +16273-3 0 04033 2 29052 072.0343 234.1881 0039453 077.6766 282.8772 14.27198631230327 GOES 13 1 29155U 06018A 10249.23641009 -.00000267 00000-0 10000-3 0 2575 2 29155 000.0713 049.4769 0004012 036.5030 269.7464 01.00268681 15723 METOP-A 1 29499U 06044A 10249.01879386 -.00000201 00000-0 -71871-4 0 2058 2 29499 098.6650 307.0919 0001382 095.1392 264.9930 14.21506531201353 FENGYUN 2D 1 29640U 06053A 10247.62088421 -.00000205 00000-0 10000-3 0 9846 2 29640 000.8420 087.8772 0000960 319.5965 245.7624 01.00267324 13750 FENGYUN 3A 1 32958U 08026A 10249.13505926 .00000167 00000-0 10000-3 0 360 2 32958 098.7219 320.1242 0000830 016.5206 343.5981 14.19623252118053 NOAA 19 1 33591U 09005A 10248.98132313 .00000103 00000-0 80973-4 0 6655 2 33591 098.7913 189.3997 0015078 061.9572 298.3161 14.11080304 81301 GOES 14 1 35491U 09033A 10248.50409484 -.00000106 00000-0 10000-3 0 6221 2 35491 000.2629 081.8126 0003111 018.9952 320.4429 01.00271753 4395 METEOR-M 1 35865U 09049A 10249.13203026 .00000176 00000-0 10000-3 0 6289 2 35865 098.7497 302.3200 0002878 114.1409 246.0043 14.21831461 50227